BEIDOU-3 IGSO-1 1 44204U 19023A 21056.89304356 -.00000169 00000-0 00000+0 0 9997 2 44204 55.8600 58.1285 0016744 205.2082 328.4467 1.00273290 6936 CZ-3B R/B 1 44205U 19023B 21056.42586265 .00023833 -65194-6 44168-3 0 9999 2 44205 28.0586 140.4799 7040741 283.3071 12.5467 2.64176532 17130